Haines, AK

10:37 AM AKST on February 19, 2018 (GMT -0900)
Haines

Weather History for PAHN - December, 2012

Change the Weather History Date:

Saturday, December 1, 2012

  Actual Average Record
Temperature  
Mean Temperature 13 °F -  
Max Temperature 14 °F 31 °F 46 °F (2004)
Min Temperature 12 °F 24 °F -4 °F (1990)
Degree Days  
Heating Degree Days 52    
Moisture  
Dew Point -4 °F    
Average Humidity 47    
Maximum Humidity 54    
Minimum Humidity 42    
Precipitation  
Precipitation 0.00 in - - ()
Sea Level Pressure  
Sea Level Pressure 29.66 in    
Wind  
Wind Speed 9 mph (NW)    
Max Wind Speed 13 mph    
Max Gust Speed 25 mph    
Visibility 10 miles    
Events      
Averages and records for this station are not official NWS values.
T = Trace of Precipitation, MM = Missing Value Source: NWS Daily Summary

Daily Weather History Graph

Daily Weather History Graph

Search for Another Location

Airport or City:

Trip Planner

Search our weather history database for the weather conditions in past years. The results will help you decide how hot, cold, wet, or windy it might be!

Date:

Astronomy

Dec. 01, 2012 Rise Set
Actual Time 8:32 AM AKST 3:10 PM AKST
Civil Twilight 7:39 AM AKST 4:02 PM AKST
Nautical Twilight 6:46 AM AKST 4:55 PM AKST
Astronomical Twilight 5:57 AM AKST 5:45 PM AKST
Moon 6:23 PM AKST (12/1) 10:37 AM AKST (12/1)
Length of Visible Light 8h 22m
Length of Day
6h 37m
Waning Gibbous, 91% of the Moon is Illuminated
Dec 1
Waning Gibbous
Dec 6
Last Quarter
Dec 12
New
Dec 19
First Quarter
Dec 28
Full

Hourly Weather History & Observations

Time (AKST) Temp. Windchill Dew Point Humidity Pressure Visibility Wind Dir Wind Speed Gust Speed Precip Events Conditions
12:54 AM 12.9 °F 5.2 °F -4.0 °F 47% 29.75 in 10.0 mi Variable 4.6 mph 18.4 mph N/A   Overcast
1:54 AM 12.9 °F -0.9 °F -4.0 °F 47% 29.75 in 10.0 mi NW 11.5 mph 19.6 mph N/A   Partly Cloudy
3:54 AM 12.0 °F -1.3 °F -5.1 °F 46% 29.73 in 10.0 mi NW 10.4 mph 17.3 mph N/A   Clear
5:54 AM 12.0 °F -1.3 °F -2.0 °F 53% 29.71 in 10.0 mi NNW 10.4 mph - N/A   Clear
6:54 AM 12.9 °F 2.6 °F -2.0 °F 51% 29.71 in 10.0 mi NW 6.9 mph 19.6 mph N/A   Clear
7:54 AM 12.0 °F -2.0 °F -2.9 °F 51% 29.70 in 10.0 mi WNW 11.5 mph 19.6 mph N/A   Clear
8:54 AM 12.9 °F -0.2 °F -2.9 °F 49% 29.70 in 10.0 mi NNW 10.4 mph - N/A   Mostly Cloudy
9:54 AM 12.9 °F 0.7 °F -2.9 °F 49% 29.70 in 10.0 mi NW 9.2 mph - N/A   Mostly Cloudy
10:54 AM 14.0 °F 3.9 °F -2.9 °F 47% 29.69 in 10.0 mi NW 6.9 mph - N/A   Scattered Clouds
11:54 AM 14.0 °F 5.1 °F -4.0 °F 45% 29.68 in 10.0 mi Variable 5.8 mph - N/A   Mostly Cloudy
12:54 PM 14.0 °F -0.2 °F -2.9 °F 47% 29.65 in 10.0 mi NW 12.7 mph 18.4 mph N/A   Overcast
1:54 PM 14.0 °F 1.2 °F -4.0 °F 45% 29.64 in 10.0 mi NW 10.4 mph 20.7 mph N/A   Mostly Cloudy
2:54 PM 12.9 °F -1.6 °F -2.9 °F 49% 29.63 in 10.0 mi WNW 12.7 mph 25.3 mph N/A   Overcast
3:54 PM 12.9 °F -1.6 °F -0.9 °F 54% 29.62 in 10.0 mi WNW 12.7 mph 24.2 mph N/A   Overcast
4:54 PM 12.9 °F 1.6 °F -2.9 °F 49% 29.63 in 10.0 mi NW 8.1 mph - N/A   Overcast
5:54 PM 12.9 °F -1.6 °F -4.0 °F 47% 29.62 in 10.0 mi WNW 12.7 mph 19.6 mph N/A   Overcast
6:54 PM 12.9 °F 2.6 °F -6.0 °F 43% 29.62 in 10.0 mi NNW 6.9 mph - N/A   Overcast
7:54 PM 12.0 °F 4.1 °F -5.1 °F 46% 29.61 in 10.0 mi NNW 4.6 mph 16.1 mph N/A   Overcast
8:54 PM 12.0 °F -0.4 °F -6.0 °F 44% 29.60 in 10.0 mi NW 9.2 mph 18.4 mph N/A   Overcast
9:54 PM 12.0 °F 2.7 °F -7.1 °F 42% 29.59 in 10.0 mi Variable 5.8 mph - N/A   Overcast
10:54 PM 12.0 °F 0.5 °F -7.1 °F 42% 29.59 in 10.0 mi NW 8.1 mph - N/A   Overcast
11:54 PM 12.0 °F 1.5 °F -6.0 °F 44% 29.58 in 10.0 mi NW 6.9 mph - N/A   Overcast